Location: Exeidioux
(45.6312°N, 1.6819°E)
Time: 20:58:04
(UTC+00:00)

Cosmos 2322 - Pass Details

Date: 03 March 2021
Orbit: 841 x 853 km, 71.0° (Epoch: 13 April)

Event Time Altitude Azimuth Distance (km) Brightness Sun altitude
Rises 19:42:44 0° 201° (SSW) 3,408 7.0 -21.6°
Reaches altitude 10° 19:45:10 10° 200° (SSW) 2,476 6.2 -22.0°
Maximum altitude 19:50:52 82° 114° (ESE) 867 3.6 -23.0°
Drops below altitude 10° 19:56:36 10° 28° (NNE) 2,491 6.0 -23.9°
Sets 19:59:03 0° 27° (NNE) 3,429 6.8 -24.4°
